Weather History for Tin City, AK

Change the Weather History Date:

Tuesday, August 19, 2014

  Actual Average Record
Temperature  
Mean Temperature 50 °F -  
Max Temperature 52 °F 47 °F 63 °F (1996)
Min Temperature 48 °F 40 °F 36 °F (2012)
Degree Days  
Heating Degree Days 16    
Moisture  
Dew Point 48 °F    
Average Humidity 93    
Maximum Humidity 97    
Minimum Humidity 82    
Precipitation  
Precipitation 0.00 in - - ()
Sea Level Pressure  
Sea Level Pressure 29.99 in    
Wind  
Wind Speed 21 mph (SW)    
Max Wind Speed 29 mph    
Max Gust Speed -    
Visibility 10 miles    
Events Thunderstorm    
Averages and records for this station are not official NWS values.
T = Trace of Precipitation, MM = Missing Value Source: NWS Daily Summary

Daily Weather History Graph

Daily Weather History Graph

Search for Another Location

Airport:

Trip Planner

Search our weather history database for the weather conditions in past years. The results will help you decide how hot, cold, wet, or windy it might be!

Date:

Astronomy

Aug. 19, 2014 Rise Set
Actual Time 7:07 AM AKDT 11:20 PM AKDT
Civil Twilight 5:59 AM AKDT 12:27 AM AKDT
Nautical Twilight 3:47 AM AKDT 3:00 AM AKDT
Astronomical Twilight Sun does not rise Sun does not rise
Moon 1:20 AM AKDT (8/19) 8:20 PM AKDT (8/19)
Length of Visible Light 18h 27m
Length of Day
16h 13m
Waning Crescent, 28% of the Moon is Illuminated
Aug 19
Waning Crescent
Aug 25
New
Sep 2
First Quarter
Sep 8
Full
Sep 15
Last Quarter

Hourly Weather History & Observations

Time (AKDT) Temp. Dew Point Humidity Pressure Visibility Wind Dir Wind Speed Gust Speed Precip Events Conditions
12:55 AM 49.3 °F 48.0 °F 95% 29.93 in 10.0 mi SW 17.3 mph - N/A Thunderstorm Thunderstorm
1:44 AM 50.0 °F 48.2 °F 94% 29.93 in 10.0 mi SW 18.4 mph - N/A   Overcast
1:55 AM 49.1 °F 47.8 °F 95% 29.94 in 10.0 mi WSW 17.3 mph - N/A   Overcast
2:55 AM 49.5 °F 47.8 °F 94% 29.94 in 10.0 mi WSW 19.6 mph - N/A   Overcast
3:44 AM 50.0 °F 48.2 °F 94% 29.94 in 10.0 mi WSW 21.9 mph - N/A   Overcast
3:55 AM 49.6 °F 47.7 °F 93% 29.95 in 10.0 mi WSW 23.0 mph - N/A   Overcast
4:55 AM 49.8 °F 47.3 °F 91% 29.96 in 10.0 mi SW 25.3 mph - N/A   Overcast
5:55 AM 49.3 °F 46.8 °F 91% 29.96 in 10.0 mi SW 28.8 mph - N/A   Overcast
6:10 AM 50.0 °F 46.4 °F 87% 29.96 in 10.0 mi SW 27.6 mph - N/A   Overcast
6:55 AM 48.2 °F 46.4 °F 93% 29.96 in 10.0 mi WSW 28.8 mph - N/A   Mostly Cloudy
7:55 AM 48.2 °F 46.4 °F 93% 29.97 in 10.0 mi WSW 26.5 mph - N/A   Mostly Cloudy
8:55 AM 48.2 °F 46.4 °F 93% 29.97 in 10.0 mi WSW 23.0 mph - N/A   Overcast
9:33 AM 48.2 °F 46.4 °F 93% 29.98 in 10.0 mi WSW 24.2 mph - N/A   Overcast
9:36 AM 48.2 °F 46.4 °F 93% 29.98 in 10.0 mi SW 23.0 mph - N/A   Overcast
9:55 AM 48.2 °F 46.4 °F 93% 29.98 in 10.0 mi WSW 23.0 mph - N/A   Overcast
10:40 AM 48.2 °F 46.4 °F 93% 29.99 in 10.0 mi WSW 21.9 mph - N/A   Light Drizzle
10:55 AM 48.2 °F 46.4 °F 93% 30.00 in 10.0 mi WSW 21.9 mph - N/A   Overcast
11:05 AM 48.2 °F 46.4 °F 93% 30.00 in 10.0 mi WSW 21.9 mph - N/A   Overcast
11:21 AM 48.2 °F 46.4 °F 93% 30.00 in 10.0 mi WSW 24.2 mph - N/A   Overcast
11:55 AM 48.2 °F 46.4 °F 93% 30.01 in 10.0 mi WSW 19.6 mph - N/A   Overcast
12:14 PM 50.0 °F 46.4 °F 87% 30.00 in 10.0 mi WSW 20.7 mph - N/A   Light Drizzle
12:31 PM 48.2 °F 46.4 °F 93% 30.00 in 6.0 mi WSW 20.7 mph - N/A   Light Drizzle
12:41 PM 50.0 °F 48.2 °F 94% 30.01 in 10.0 mi WSW 18.4 mph - N/A   Overcast
12:55 PM 49.6 °F 46.9 °F 90% 30.01 in 10.0 mi WSW 19.6 mph - N/A   Overcast
1:07 PM 50.0 °F 48.2 °F 94% 30.00 in 10.0 mi WSW 19.6 mph - N/A   Overcast
1:21 PM 50.0 °F 48.2 °F 94% 30.01 in 10.0 mi SW 19.6 mph - N/A   Overcast
1:30 PM 50.0 °F 48.2 °F 94% 30.01 in 10.0 mi SW 23.0 mph - N/A   Overcast
1:55 PM 50.7 °F 47.8 °F 90% 30.02 in 10.0 mi SW 20.7 mph - N/A   Overcast
2:30 PM 51.8 °F 46.4 °F 82% 30.02 in 10.0 mi WSW 20.7 mph - N/A   Overcast
2:55 PM 51.1 °F 47.5 °F 87% 30.03 in 10.0 mi WSW 16.1 mph - N/A   Overcast
3:55 PM 50.9 °F 48.2 °F 90% 30.03 in 10.0 mi SSW 19.6 mph - N/A   Overcast
4:30 PM 50.0 °F 48.2 °F 94% 30.03 in 10.0 mi SW 18.4 mph - N/A   Overcast
4:55 PM 50.9 °F 49.1 °F 94% 30.03 in 10.0 mi SW 19.6 mph - N/A   Overcast
5:50 PM 51.8 °F 50.0 °F 94% 30.02 in 10.0 mi SW 19.6 mph - N/A   Overcast
5:55 PM 51.1 °F 48.7 °F 92% 30.02 in 10.0 mi SW 21.9 mph - N/A   Overcast
6:50 PM 51.8 °F 48.2 °F 88% 30.02 in 10.0 mi SW 26.5 mph - N/A   Overcast
6:55 PM 51.4 °F 49.1 °F 92% 30.02 in 10.0 mi SW 23.0 mph - N/A   Overcast
7:55 PM 50.7 °F 48.7 °F 93% 30.02 in 10.0 mi SW 23.0 mph - N/A   Overcast
8:55 PM 50.5 °F 49.6 °F 97% 30.02 in 10.0 mi SW 21.9 mph - N/A   Overcast
9:55 PM 50.4 °F 49.6 °F 97% 30.03 in 10.0 mi SW 18.4 mph - N/A   Overcast
10:55 PM 50.5 °F 49.3 °F 95% 30.04 in 10.0 mi SW 18.4 mph - N/A   Mostly Cloudy
11:55 PM 50.7 °F 49.8 °F 97% 30.04 in 10.0 mi SW 18.4 mph - N/A   Overcast